Weather History for George, South Africa

Change the Weather History Date:

Saturday, December 7, 2013

  Actual Average Record
Temperature  
Mean Temperature 60 °F -  
Max Temperature 67 °F 72 °F 107 °F (2002)
Min Temperature 54 °F 57 °F 50 °F (2007)
Degree Days  
Heating Degree Days 4    
Growing Degree Days 10 (Base 50)    
Moisture  
Dew Point 53 °F    
Average Humidity 73    
Maximum Humidity 88    
Minimum Humidity 51    
Precipitation  
Precipitation 0.00 in - - ()
Sea Level Pressure  
Sea Level Pressure 30.12 in    
Wind  
Wind Speed 10 mph ()    
Max Wind Speed 22 mph    
Max Gust Speed 31 mph    
Visibility 7.3 miles    
Events      
Averages and records for this station are not official NWS values.
T = Trace of Precipitation, MM = Missing Value Source: Averaged Metar Reports

Daily Weather History Graph

Daily Weather History Graph

Search for Another Location

Airport:

Trip Planner

Search our weather history database for the weather conditions in past years. The results will help you decide how hot, cold, wet, or windy it might be!

Date:

Astronomy

Dec. 07, 2013 Rise Set
Actual Time 5:12 AM SAST 7:32 PM SAST
Civil Twilight 4:43 AM SAST 8:01 PM SAST
Nautical Twilight 4:07 AM SAST 8:36 PM SAST
Astronomical Twilight 3:29 AM SAST 9:15 PM SAST
Moon 9:59 AM SAST (12/7) 11:23 PM SAST (12/7)
Length of Visible Light 15h 17m
Length of Day
14h 20m
Waxing Crescent, 26% of the Moon is Illuminated
Dec 7
Waxing Crescent
Dec 9
First Quarter
Dec 17
Full
Dec 25
Last Quarter
Jan 1
New

Hourly Weather History & Observations

Time (SAST) Temp. Dew Point Humidity Pressure Visibility Wind Dir Wind Speed Gust Speed Precip Events Conditions
12:00 AM 59.0 °F 53.6 °F 82% 30.21 in 6.2 mi East 10.4 mph - N/A   Partly Cloudy
1:00 AM 57.2 °F 51.8 °F 82% 30.18 in 6.2 mi East 8.1 mph - N/A   Partly Cloudy
2:00 AM 55 °F 51 °F 84% 30.19 in 6 mi East 6.9 mph - -  
2:00 AM 55.4 °F 50.0 °F 82% 30.18 in - East 6.9 mph - N/A   Clear
3:00 AM 53.6 °F 50.0 °F 88% 30.15 in 6.2 mi East 6.9 mph - N/A   Partly Cloudy
4:00 AM 55.4 °F 51.8 °F 88% 30.15 in 6.2 mi East 9.2 mph - N/A   Overcast
5:00 AM 56 °F 50 °F 74% 30.17 in 12 mi East 6.9 mph - -   Partly Cloudy
5:00 AM 55.4 °F 50.0 °F 82% 30.15 in 6.2 mi East 6.9 mph - N/A   Scattered Clouds
6:00 AM 55.4 °F 50.0 °F 82% 30.18 in 6.2 mi ESE 6.9 mph - N/A   Partly Cloudy
7:00 AM 59.0 °F 50.0 °F 72% 30.15 in 6.2 mi East 11.5 mph - N/A   Partly Cloudy
8:00 AM 61 °F 52 °F 64% 30.18 in 12 mi East 12.7 mph - -   Scattered Clouds
8:00 AM 60.8 °F 51.8 °F 72% 30.15 in 6.2 mi East 12.7 mph - N/A   Partly Cloudy
9:00 AM 64.4 °F 53.6 °F 68% 30.15 in 6.2 mi SE 15.0 mph - N/A   Partly Cloudy
10:00 AM 66.2 °F 53.6 °F 64% 30.15 in 6.2 mi ESE 13.8 mph - N/A   Partly Cloudy
11:00 AM 65 °F 51 °F 51% 30.16 in 12 mi ESE 13.8 mph - -   Scattered Clouds
11:00 AM 66.2 °F 51.8 °F 60% 30.15 in 6.2 mi ESE 13.8 mph - N/A   Partly Cloudy
12:00 PM 66.2 °F 53.6 °F 64% 30.15 in 6.2 mi ESE 15.0 mph - N/A   Partly Cloudy
1:00 PM 68.0 °F 55.4 °F 64% 30.12 in 6.2 mi ESE 16.1 mph - N/A   Partly Cloudy
2:00 PM 67 °F 55 °F 56% 30.10 in 12 mi ESE 21.9 mph - -   Scattered Clouds
2:00 PM 66.2 °F 53.6 °F 64% 30.09 in 6.2 mi ESE 17.3 mph - N/A   Partly Cloudy
3:00 PM 66.2 °F 55.4 °F 68% 30.06 in 6.2 mi East 18.4 mph - N/A   Partly Cloudy
4:00 PM 66.2 °F 55.4 °F 68% 30.04 in 6.2 mi ESE 20.7 mph - N/A   Partly Cloudy
5:00 PM 64.4 °F 53.6 °F 68% 30.01 in 6.2 mi ESE 19.6 mph - N/A   Partly Cloudy
6:00 PM 64.4 °F 53.6 °F 68% 30.01 in 6.2 mi ESE 19.6 mph 31.1 mph N/A   Partly Cloudy
7:00 PM 62.6 °F 53.6 °F 72% 30.01 in 6.2 mi ESE 18.4 mph - N/A   Partly Cloudy
8:00 PM 61 °F 54 °F 71% 30.05 in 12 mi ESE 17.3 mph - -   Scattered Clouds
8:00 PM 60.8 °F 53.6 °F 77% 30.04 in 6.2 mi ESE 15.0 mph - N/A   Partly Cloudy
9:00 PM 60.8 °F 53.6 °F 77% 30.04 in - ESE 12.7 mph - N/A   Clear
10:00 PM 59.0 °F 53.6 °F 82% 30.09 in - SE 9.2 mph - N/A   Clear
11:00 PM 59.0 °F 53.6 °F 82% 30.09 in - ESE 4.6 mph - N/A   Clear